DW7898 Weather Reports


Display with metric or nautical units.
time (UTC)temp
F
wind
direction
speed
MPH
gust
MPH
rain 1hr
in
rain 24hr
in
rain mn
in
humidity
%
barometer
mb
20260904192405 82 126 2.0 4.0 0.00 0.00 0.00 77 1021.6
20260904191354 82 126 1.0 2.0 0.00 0.00 0.00 77 1021.6
20260904190344 82 126 1.0 3.0 0.00 0.00 0.00 78 1021.5
20260904185350 82 126 0.0 2.0 0.00 0.00 0.00 78 1021.3
20260904184400 82 126 2.0 3.0 0.00 0.00 0.00 78 1021.1
20260904183352 82 127 1.0 6.0 0.00 0.00 0.00 78 1020.9
20260904182342 82 127 3.0 6.0 0.00 0.00 0.00 78 1020.7
20260904181342 82 121 5.0 7.0 0.00 0.00 0.00 77 1020.6
20260904180343 83 149 4.0 9.0 0.00 0.00 0.00 77 1020.4
20260904175355 83 110 5.0 9.0 0.00 0.00 0.00 75 1020.5
20260904174353 83 134 4.0 8.0 0.00 0.00 0.00 74 1020.5
20260904173343 83 130 2.0 9.0 0.00 0.00 0.00 74 1020.4
20260904172359 83 137 5.0 10.0 0.00 0.00 0.00 75 1020.2
20260904171343 83 155 6.0 15.0 0.00 0.00 0.00 75 1020.1
20260904170347 83 117 8.0 15.0 0.00 0.00 0.00 74 1019.9
20260904165403 83 119 8.0 16.0 0.00 0.00 0.00 72 1019.9
20260904164350 84 102 6.0 16.0 0.00 0.00 0.00 70 1020.1
20260904163348 84 119 7.0 13.0 0.00 0.00 0.00 69 1020.0
20260904162343 84 113 7.0 15.0 0.00 0.00 0.00 68 1020.1
20260904161355 85 97 6.0 13.0 0.00 0.00 0.00 68 1020.1
20260904160349 85 144 8.0 14.0 0.00 0.00 0.00 68 1020.1
20260904155406 85 148 5.0 14.0 0.00 0.00 0.00 68 1020.1
20260904154359 85 111 6.0 15.0 0.00 0.00 0.00 67 1020.1
20260904153354 86 102 7.0 14.0 0.00 0.00 0.00 66 1020.1
20260904152402 86 144 6.0 14.0 0.00 0.00 0.00 66 1020.0
20260904151356 86 122 8.0 16.0 0.00 0.00 0.00 65 1020.1
20260904150348 86 129 8.0 13.0 0.00 0.00 0.00 65 1020.1
20260904145403 87 125 6.0 12.0 0.00 0.00 0.00 64 1020.1
20260904144401 87 113 6.0 14.0 0.00 0.00 0.00 64 1020.0
20260904143400 87 120 6.0 15.0 0.00 0.00 0.00 63 1020.1
20260904142348 87 129 6.0 13.0 0.00 0.00 0.00 61 1020.2
20260904141347 87 185 7.0 12.0 0.00 0.00 0.00 60 1020.2
20260904140403 88 128 10.0 14.0 0.00 0.00 0.00 59 1020.4
20260904135351 88 166 3.0 13.0 0.00 0.00 0.00 58 1020.2
20260904134347 88 101 9.0 15.0 0.00 0.00 0.00 57 1020.5
20260904133401 89 160 5.0 14.0 0.00 0.00 0.00 58 1020.5
20260904132343 88 138 6.0 12.0 0.00 0.00 0.00 57 1020.5
20260904131359 88 120 8.0 18.0 0.00 0.00 0.00 58 1020.4
20260904130346 89 133 9.0 13.0 0.00 0.00 0.00 56 1020.5
20260904125351 89 136 10.0 15.0 0.00 0.00 0.00 56 1020.5
20260904124348 89 87 7.0 15.0 0.00 0.00 0.00 56 1020.6
20260904123357 89 134 4.0 15.0 0.00 0.00 0.00 56 1020.6
20260904122402 89 118 8.0 14.0 0.00 0.00 0.00 55 1020.7
20260904121356 90 130 7.0 15.0 0.00 0.00 0.00 55 1020.7
20260904120349 90 146 7.0 16.0 0.00 0.00 0.00 55 1020.8
20260904115357 90 133 7.0 13.0 0.00 0.00 0.00 54 1021.1
20260904114352 91 134 7.0 14.0 0.00 0.00 0.00 53 1020.9
20260904113344 91 128 7.0 13.0 0.00 0.00 0.00 50 1021.1
20260904112359 92 134 4.0 10.0 0.00 0.00 0.00 49 1021.1
20260904111352 92 123 5.0 11.0 0.00 0.00 0.00 47 1021.0
20260904110348 91 149 5.0 9.0 0.00 0.00 0.00 47 1021.3
20260904105357 91 137 5.0 10.0 0.00 0.00 0.00 47 1021.3
20260904104349 92 147 2.0 6.0 0.00 0.00 0.00 47 1021.3
20260904103401 91 197 2.0 7.0 0.00 0.00 0.00 47 1021.4
20260904102358 90 251 4.0 8.0 0.00 0.00 0.00 47 1021.5
20260904101358 89 275 3.0 8.0 0.00 0.00 0.00 47 1021.7
20260904100354 89 233 3.0 6.0 0.00 0.00 0.00 48 1021.6
20260904095402 88 284 3.0 4.0 0.00 0.00 0.00 48 1021.7
20260904094357 88 285 3.0 4.0 0.00 0.00 0.00 48 1021.8
20260904093348 87 285 1.0 3.0 0.00 0.00 0.00 50 1021.8
20260904092339 86 285 2.0 4.0 0.00 0.00 0.00 51 1021.9
20260904091401 85 283 1.0 3.0 0.00 0.00 0.00 53 1021.9
20260904090402 84 274 1.0 3.0 0.00 0.00 0.00 55 1021.9
20260904085359 83 273 2.0 4.0 0.00 0.00 0.00 56 1022.0
20260904084359 83 273 1.0 3.0 0.00 0.00 0.00 61 1021.9
20260904083341 81 273 0.0 3.0 0.00 0.00 0.00 64 1021.9
20260904082358 81 272 0.0 2.0 0.00 0.00 0.00 67 1021.8
20260904081354 80 272 1.0 3.0 0.00 0.00 0.00 69 1021.8
20260904080338 79 270 0.0 5.0 0.00 0.00 0.00 71 1021.6
20260904075357 78 20 0.0 0.0 0.00 0.00 0.00 72 1021.7
20260904074346 78 20 0.0 0.0 0.00 0.00 0.00 72 1021.8
20260904073350 78 21 0.0 0.0 0.00 0.00 0.00 75 1021.8
20260904072341 77 21 0.0 0.0 0.00 0.00 0.00 77 1021.7
20260904071341 76 21 0.0 0.0 0.00 0.00 0.00 79 1021.7
20260904070341 75 20 0.0 1.0 0.00 0.00 0.00 79 1021.8
20260904065400 75 21 1.0 2.0 0.00 0.00 0.00 79 1021.8
20260904064357 75 21 0.0 2.0 0.00 0.00 0.00 81 1021.7
20260904063357 74 21 0.0 2.0 0.00 0.00 0.00 82 1021.6
20260904062349 74 21 1.0 2.0 0.00 0.00 0.00 82 1021.6
20260904061350 73 21 0.0 2.0 0.00 0.00 0.00 82 1021.6
20260904060348 73 21 1.0 2.0 0.00 0.00 0.00 81 1021.5
20260904055400 73 21 1.0 2.0 0.00 0.00 0.00 82 1021.6
20260904054359 73 21 0.0 1.0 0.00 0.00 0.00 82 1021.4
20260904053340 73 21 0.0 1.0 0.00 0.00 0.00 81 1021.4
20260904052357 74 21 0.0 0.0 0.00 0.00 0.00 82 1021.2
20260904051400 74 21 0.0 2.0 0.00 0.00 0.00 81 1021.3
20260904050358 74 21 1.0 2.0 0.00 0.00 0.00 81 1021.3
20260904045350 74 21 1.0 2.0 0.00 0.00 0.00 80 1021.4
20260904044344 74 21 1.0 1.0 0.00 0.00 0.00 80 1021.4
20260904043344 73 21 0.0 0.0 0.00 0.00 0.00 79 1021.4
20260904042359 74 21 0.0 0.0 0.00 0.00 0.00 80 1021.5
20260904041359 74 21 0.0 0.0 0.00 0.00 0.00 80 1021.5
20260904040357 74 21 0.0 2.0 0.00 0.00 0.00 80 1021.6
20260904035402 74 21 0.0 0.0 0.00 0.00 0.00 80 1021.7
20260904034342 74 21 0.0 2.0 0.00 0.00 0.00 81 1021.7
20260904033346 74 21 1.0 3.0 0.00 0.00 0.00 81 1021.7
20260904032338 74 21 2.0 4.0 0.00 0.00 0.00 81 1021.8
20260904031356 75 252 0.0 3.0 0.00 0.00 0.00 82 1022.0
20260904030354 75 251 0.0 2.0 0.00 0.00 0.00 83 1022.0
20260904025355 76 251 0.0 1.0 0.00 0.00 0.00 83 1022.2
20260904024359 76 251 0.0 1.0 0.00 0.00 0.00 83 1022.2
20260904023338 76 251 1.0 4.0 0.00 0.00 0.00 83 1022.3
20260904022337 76 252 1.0 3.0 0.00 0.00 0.00 82 1022.3
20260904021340 76 252 0.0 2.0 0.00 0.00 0.00 81 1022.3
20260904020342 76 252 1.0 2.0 0.00 0.00 0.00 81 1022.5
20260904015400 76 252 0.0 3.0 0.00 0.00 0.00 80 1022.6
20260904014359 77 252 1.0 3.0 0.00 0.00 0.00 79 1022.5
20260904013341 76 252 1.0 2.0 0.00 0.00 0.00 79 1022.6
20260904012356 77 252 0.0 1.0 0.00 0.00 0.00 80 1022.6
20260904011358 77 252 1.0 2.0 0.00 0.00 0.00 80 1022.7
20260904010357 77 252 0.0 2.0 0.00 0.00 0.00 80 1022.8
20260904005349 77 252 1.0 4.0 0.00 0.00 0.00 79 1023.0
20260904004351 77 253 1.0 3.0 0.00 0.00 0.00 78 1022.9
20260904003354 77 253 0.0 1.0 0.00 0.00 0.00 78 1023.1
20260904002355 78 253 0.0 1.0 0.00 0.00 0.00 77 1023.2
20260904001357 78 253 0.0 1.0 0.00 0.00 0.00 77 1023.2
20260904000358 78 253 0.0 1.0 0.00 0.00 0.00 76 1023.3
20260903235355 78 253 0.0 1.0 0.00 0.00 0.00 75 1023.4
20260903234351 78 253 1.0 2.0 0.00 0.00 0.00 75 1023.4
20260903233352 78 253 0.0 2.0 0.00 0.00 0.00 75 1023.5
20260903232348 78 253 1.0 3.0 0.00 0.00 0.00 75 1023.6
20260903231343 78 253 1.0 2.0 0.00 0.00 0.00 74 1023.7
20260903230344 78 253 1.0 3.0 0.00 0.00 0.00 74 1023.6
20260903225401 79 253 2.0 3.0 0.00 0.00 0.00 73 1023.7
20260903224339 79 253 2.0 3.0 0.00 0.00 0.00 73 1023.5
20260903223339 79 253 2.0 4.0 0.00 0.00 0.00 74 1023.6
20260903222339 79 253 1.0 3.0 0.00 0.00 0.00 73 1023.6
20260903221344 79 253 2.0 4.0 0.00 0.00 0.00 73 1023.6
20260903220347 79 253 2.0 4.0 0.00 0.00 0.00 72 1023.6
20260903215340 79 253 2.0 4.0 0.00 0.00 0.00 72 1023.6
20260903214338 79 253 3.0 4.0 0.00 0.00 0.00 72 1023.6
20260903213343 80 253 3.0 4.0 0.00 0.00 0.00 71 1023.5
20260903212341 80 253 1.0 5.0 0.00 0.00 0.00 71 1023.7
20260903211342 80 253 2.0 4.0 0.00 0.00 0.00 71 1023.5
20260903210341 80 254 2.0 4.0 0.00 0.00 0.00 70 1023.6
20260903205400 80 254 3.0 5.0 0.00 0.00 0.00 70 1023.7
20260903204341 80 254 2.0 4.0 0.00 0.00 0.00 70 1023.7
20260903203343 80 255 2.0 5.0 0.00 0.00 0.00 70 1023.7
20260903202357 81 252 2.0 5.0 0.00 0.00 0.00 70 1023.7
20260903201354 81 254 1.0 5.0 0.00 0.00 0.00 70 1023.7
20260903200339 81 251 3.0 5.0 0.00 0.00 0.00 70 1023.8
20260903195339 81 249 2.0 5.0 0.00 0.00 0.00 70 1023.7
20260903194358 81 252 3.0 6.0 0.00 0.00 0.00 70 1023.6
20260903193356 81 223 3.0 7.0 0.00 0.00 0.00 70 1023.4